QPF
0.07 0.07 0.06 0.07 0.06 0.06 0.10 0.14 0.12 0.08 0.09 0.10 0.08 0.06 0.07 0.06 0.08 0.12 0.09 0.06 0.06 0.06 0.06 0.06 0.05 0.06 0.07 0.08 0.08 0.08 0.08 0.08 0.08 0.07 0.06 0.06 0.06 0.05 0.06 0.08 0.08 0.08 0.08
0.08 0.07 0.06 0.08 0.08 0.06 0.07 0.10 0.11 0.09 0.09 0.09 0.09 0.07 0.06 0.05 0.06 0.10 0.10 0.07 0.06 0.05 0.05 0.05 0.06 0.08 0.08 0.08 0.09 0.08 0.08 0.08 0.09 0.09 0.08 0.08 0.08 0.08 0.08 0.12 0.10 0.08 0.09
0.06 0.05 0.07 0.09 0.08 0.06 0.08 0.12 0.14 0.12 0.11 0.11 0.12 0.10 0.08 0.05 0.06 0.07 0.08 0.07 0.06 0.05 0.05 0.05 0.06 0.09 0.10 0.10 0.10 0.12 0.11 0.12 0.12 0.11 0.10 0.10 0.10 0.11 0.12 0.14 0.13 0.09 0.08
0.05 0.06 0.09 0.13 0.10 0.07 0.11 0.15 0.16 0.14 0.14 0.14 0.14 0.11 0.09 0.06 0.06 0.06 0.06 0.06 0.06 0.04 0.04 0.05 0.06 0.08 0.10 0.12 0.14 0.14 0.13 0.13 0.13 0.11 0.09 0.10 0.12 0.12 0.14 0.15 0.19 0.14 0.09
0.03 0.07 0.17 0.21 0.15 0.08 0.10 0.12 0.14 0.14 0.15 0.16 0.15 0.17 0.13 0.08 0.06 0.05 0.04 0.04 0.04 0.03 0.04 0.06 0.06 0.07 0.09 0.12 0.14 0.15 0.14 0.11 0.10 0.10 0.10 0.12 0.17 0.22 0.25 0.24 0.21 0.14 0.10
0.02 0.04 0.09 0.15 0.10 0.06 0.07 0.08 0.08 0.09 0.10 0.10 0.09 0.11 0.12 0.10 0.07 0.06 0.05 0.04 0.04 0.02 0.02 0.02 0.04 0.04 0.05 0.06 0.07 0.09 0.13 0.13 0.12 0.10 0.10 0.14 0.16 0.19 0.23 0.19 0.14 0.12 0.09
0.02 0.03 0.03 0.05 0.05 0.05 0.07 0.06 0.07 0.08 0.07 0.06 0.06 0.07 0.07 0.07 0.07 0.06 0.06 0.05 0.04 0.02 0.02 0.02 0.04 0.04 0.05 0.05 0.05 0.07 0.08 0.10 0.11 0.11 0.14 0.19 0.21 0.17 0.16 0.13 0.11 0.09 0.07
0.03 0.02 0.03 0.05 0.05 0.05 0.05 0.06 0.06 0.06 0.06 0.06 0.05 0.06 0.07 0.07 0.05 0.04 0.03 0.03 0.04 0.04 0.03 0.02 0.02 0.04 0.06 0.06 0.04 0.04 0.04 0.06 0.08 0.11 0.15 0.20 0.26 0.17 0.12 0.11 0.10 0.06 0.03
0.03 0.02 0.03 0.05 0.05 0.04 0.05 0.05 0.05 0.05 0.06 0.05 0.06 0.07 0.06 0.06 0.06 0.05 0.03 0.02 0.02 0.03 0.03 0.02 0.02 0.04 0.04 0.05 0.04 0.02 0.02 0.03 0.04 0.07 0.12 0.18 0.17 0.13 0.13 0.14 0.09 0.04 0.02
0.04 0.03 0.04 0.06 0.06 0.04 0.05 0.05 0.05 0.05 0.06 0.05 0.05 0.05 0.06 0.05 0.05 0.06 0.04 0.03 0.03 0.03 0.03 0.02 0.02 0.02 0.03 0.04 0.04 0.02 0.02 0.03 0.03 0.05 0.07 0.10 0.11 0.09 0.08 0.07 0.05 0.04 0.03
0.02 0.02 0.03 0.03 0.04 0.05 0.07 0.08 0.07 0.05 0.05 0.05 0.06 0.05 0.04 0.04 0.04 0.04 0.04 0.03 0.03 0.03 0.03 0.03 0.03 0.03 0.02 0.03 0.03 0.03 0.02 0.02 0.03 0.04 0.05 0.05 0.07 0.07 0.08 0.06 0.06 0.06 0.04
0.02 0.02 0.02 0.04 0.04 0.04 0.06 0.09 0.11 0.09 0.07 0.06 0.06 0.07 0.07 0.05 0.05 0.06 0.04 0.04 0.03 0.02 0.03 0.04 0.03 0.02 0.02 0.02 0.02 0.02 0.02 0.02 0.02 0.03 0.04 0.04 0.04 0.04 0.05 0.06 0.06 0.06 0.06
0.03 0.03 0.02 0.03 0.03 0.03 0.04 0.06 0.08 0.09 0.11 0.08 0.06 0.06 0.07 0.07 0.08 0.08 0.06 0.04 0.03 0.02 0.01 0.02 0.02 0.02 0.01 0.02 0.03 0.02 0.02 0.02 0.02 0.02 0.03 0.03 0.03 0.03 0.04 0.05 0.05 0.06 0.05
0.02 0.02 0.03 0.03 0.03 0.03 0.02 0.04 0.04 0.04 0.06 0.07 0.05 0.05 0.06 0.06 0.06 0.05 0.05 0.04 0.03 0.02 0.01 0.01 0.01 0.02 0.02 0.02 0.03 0.03 0.04 0.03 0.02 0.03 0.03 0.04 0.04 0.05 0.05 0.04 0.04 0.05 0.05
0.02 0.02 0.03 0.02 0.03 0.03 0.03 0.04 0.04 0.03 0.03 0.04 0.03 0.03 0.03 0.04 0.05 0.04 0.03 0.03 0.04 0.03 0.02 0.02 0.01 0.02 0.02 0.03 0.02 0.03 0.04 0.03 0.02 0.03 0.03 0.04 0.06 0.05 0.04 0.04 0.04 0.05 0.06
0.01 0.02 0.02 0.02 0.02 0.03 0.04 0.04 0.04 0.04 0.04 0.03 0.02 0.02 0.03 0.04 0.04 0.03 0.03 0.03 0.03 0.03 0.02 0.02 0.02 0.01 0.01 0.02 0.03 0.03 0.04 0.03 0.03 0.04 0.05 0.05 0.06 0.06 0.04 0.03 0.02 0.02 0.03
0.02 0.01 0.02 0.02 0.02 0.03 0.04 0.05 0.05 0.04 0.03 0.02 0.02 0.02 0.03 0.03 0.03 0.03 0.02 0.02 0.02 0.02 0.02 0.02 0.01 0.01 0.01 0.01 0.01 0.03 0.03 0.04 0.05 0.05 0.06 0.07 0.07 0.06 0.04 0.02 0.02 0.01 0.02
0.02 0.01 0.02 0.02 0.02 0.03 0.03 0.03 0.03 0.03 0.02 0.02 0.03 0.03 0.02 0.02 0.02 0.02 0.02 0.02 0.02 0.03 0.03 0.04 0.03 0.02 0.02 0.02 0.02 0.02 0.02 0.03 0.04 0.04 0.05 0.05 0.04 0.03 0.02 0.01 0.01 0.01 0.02
0.01 0.01 0.01 0.02 0.02 0.02 0.03 0.03 0.02 0.02 0.03 0.03 0.02 0.02 0.02 0.03 0.03 0.02 0.02 0.02 0.02 0.03 0.04 0.04 0.03 0.02 0.02 0.02 0.02 0.02 0.02 0.03 0.03 0.03 0.02 0.02 0.01 0.01 0.01 0.01 0.01 0.01 0.02
0.01 0.01 0.01 0.02 0.03 0.02 0.02 0.03 0.02 0.02 0.02 0.02 0.02 0.02 0.02 0.03 0.02 0.02 0.02 0.02 0.02 0.03 0.03 0.03 0.02 0.01 0.01 0.02 0.02 0.02 0.02 0.02 0.02 0.02 0.02 0.01 0.01 0.01 0.01 0.01 0.01 0.01 0.01
0.01 0.01 0.01 0.02 0.02 0.01 0.01 0.02 0.02 0.02 0.02 0.02 0.02 0.02 0.02 0.02 0.02 0.02 0.01 0.02 0.03 0.04 0.03 0.03 0.03 0.02 0.01 0.02 0.02 0.02 0.02 0.02 0.02 0.02 0.01 0.01 0.01 0.01 0.01 0.01 0.01 0.01 0.01
0.01 0.01 0.01 0.01 0.01 0.01 0.01 0.01 0.01 0.01 0.02 0.02 0.03 0.02 0.02 0.02 0.01 0.01 0.02 0.02 0.02 0.03 0.03 0.03 0.02 0.02 0.02 0.02 0.02 0.01 0.01 0.01 0.01 0.01 0.01 0.01 0.02 0.02 0.02 0.02 0.01 0.01 0.01
0.01 0.01 0.01 0.01 0.00 0.00 0.00 0.00 0.01 0.01 0.02 0.02 0.03 0.03 0.02 0.01 0.01 0.01 0.01 0.01 0.01 0.01 0.02 0.02 0.02 0.03 0.03 0.02 0.02 0.01 0.01 0.01 0.02 0.01 0.02 0.02 0.02 0.02 0.02 0.02 0.02 0.01 0.01
0.01 0.01 0.01 0.01 0.00 0.00 0.00 0.00 0.01 0.01 0.02 0.03 0.03 0.02 0.02 0.02 0.02 0.02 0.01 0.01 0.01 0.01 0.01 0.01 0.01 0.02 0.02 0.03 0.02 0.02 0.02 0.02 0.02 0.02 0.02 0.02 0.02 0.03 0.03 0.04 0.03 0.02 0.02
0.01 0.01 0.02 0.01 0.01 0.00 0.01 0.01 0.02 0.02 0.02 0.02 0.01 0.01 0.01 0.02 0.02 0.02 0.01 0.02 0.02 0.01 0.02 0.01 0.01 0.01 0.01 0.02 0.02 0.02 0.02 0.02 0.02 0.02 0.03 0.02 0.01 0.02 0.03 0.05 0.04 0.03 0.02
0.01 0.01 0.01 0.01 0.00 0.00 0.01 0.01 0.02 0.02 0.02 0.01 0.01 0.01 0.02 0.02 0.01 0.02 0.02 0.02 0.02 0.01 0.01 0.01 0.01 0.01 0.01 0.01 0.02 0.02 0.02 0.02 0.02 0.02 0.02 0.02 0.02 0.03 0.05 0.05 0.05 0.03 0.02
MSLP
1016.95 1017.18 1017.39 1017.58 1017.71 1017.75 1017.70 1017.54 1017.28 1016.94 1016.55 1016.16 1015.81 1015.54 1015.37 1015.33 1015.40 1015.57 1015.81 1016.08 1016.33 1016.55 1016.69 1016.75 1016.73 1016.65 1016.54 1016.43 1016.32 1016.24 1016.20 1016.18 1016.19 1016.19 1016.18 1016.13 1016.05 1015.92 1015.75 1015.55 1015.33 1015.10 1014.89
1017.17 1017.39 1017.60 1017.76 1017.86 1017.87 1017.79 1017.59 1017.30 1016.94 1016.53 1016.13 1015.77 1015.47 1015.28 1015.19 1015.20 1015.31 1015.47 1015.67 1015.87 1016.04 1016.17 1016.23 1016.24 1016.20 1016.13 1016.04 1015.95 1015.88 1015.82 1015.78 1015.75 1015.71 1015.66 1015.58 1015.47 1015.31 1015.13 1014.92 1014.69 1014.47 1014.28
1017.43 1017.65 1017.83 1017.97 1018.04 1018.02 1017.91 1017.69 1017.38 1017.01 1016.60 1016.20 1015.83 1015.52 1015.28 1015.13 1015.07 1015.08 1015.14 1015.24 1015.36 1015.47 1015.57 1015.64 1015.68 1015.68 1015.65 1015.61 1015.54 1015.47 1015.40 1015.33 1015.25 1015.16 1015.06 1014.93 1014.78 1014.60 1014.40 1014.19 1013.98 1013.78 1013.61
1017.69 1017.90 1018.06 1018.18 1018.22 1018.17 1018.04 1017.81 1017.50 1017.14 1016.75 1016.36 1016.00 1015.67 1015.40 1015.19 1015.03 1014.93 1014.87 1014.85 1014.87 1014.91 1014.96 1015.01 1015.06 1015.10 1015.12 1015.11 1015.07 1015.01 1014.92 1014.82 1014.69 1014.55 1014.39 1014.21 1014.02 1013.82 1013.61 1013.41 1013.22 1013.07 1012.95
1017.91 1018.10 1018.25 1018.33 1018.35 1018.29 1018.14 1017.92 1017.63 1017.30 1016.95 1016.59 1016.25 1015.93 1015.63 1015.36 1015.12 1014.90 1014.71 1014.57 1014.46 1014.40 1014.38 1014.40 1014.44 1014.49 1014.53 1014.55 1014.54 1014.49 1014.39 1014.26 1014.09 1013.90 1013.70 1013.48 1013.26 1013.04 1012.83 1012.65 1012.50 1012.39 1012.32
1018.06 1018.22 1018.35 1018.42 1018.43 1018.36 1018.21 1018.01 1017.75 1017.46 1017.16 1016.86 1016.56 1016.26 1015.96 1015.65 1015.33 1015.01 1014.71 1014.43 1014.19 1014.01 1013.90 1013.85 1013.85 1013.89 1013.93 1013.96 1013.96 1013.92 1013.82 1013.68 1013.50 1013.28 1013.05 1012.80 1012.56 1012.34 1012.14 1011.98 1011.86 1011.80 1011.79
1018.12 1018.27 1018.38 1018.44 1018.44 1018.37 1018.24 1018.06 1017.85 1017.61 1017.37 1017.13 1016.89 1016.63 1016.34 1016.02 1015.66 1015.27 1014.86 1014.45 1014.09 1013.78 1013.55 1013.40 1013.33 1013.32 1013.34 1013.36 1013.37 1013.34 1013.26 1013.13 1012.95 1012.73 1012.49 1012.24 1012.00 1011.78 1011.59 1011.45 1011.36 1011.34 1011.37
1018.12 1018.25 1018.36 1018.41 1018.42 1018.36 1018.26 1018.11 1017.93 1017.75 1017.57 1017.39 1017.21 1017.01 1016.76 1016.45 1016.07 1015.63 1015.14 1014.63 1014.14 1013.70 1013.34 1013.08 1012.91 1012.82 1012.79 1012.79 1012.79 1012.78 1012.73 1012.62 1012.47 1012.29 1012.07 1011.83 1011.60 1011.39 1011.21 1011.08 1011.01 1011.01 1011.06
1018.09 1018.21 1018.31 1018.38 1018.40 1018.36 1018.27 1018.15 1018.01 1017.87 1017.74 1017.61 1017.49 1017.34 1017.14 1016.86 1016.49 1016.03 1015.50 1014.92 1014.32 1013.77 1013.28 1012.88 1012.59 1012.41 1012.31 1012.27 1012.26 1012.26 1012.24 1012.19 1012.09 1011.95 1011.77 1011.57 1011.36 1011.16 1010.99 1010.86 1010.78 1010.77 1010.83
1018.05 1018.18 1018.29 1018.37 1018.41 1018.39 1018.32 1018.21 1018.08 1017.96 1017.86 1017.77 1017.68 1017.58 1017.43 1017.20 1016.86 1016.42 1015.87 1015.24 1014.58 1013.92 1013.32 1012.79 1012.38 1012.09 1011.91 1011.81 1011.79 1011.79 1011.81 1011.80 1011.77 1011.69 1011.56 1011.40 1011.22 1011.03 1010.85 1010.71 1010.61 1010.58 1010.61
1018.04 1018.17 1018.30 1018.41 1018.46 1018.45 1018.39 1018.28 1018.14 1018.02 1017.91 1017.83 1017.76 1017.69 1017.59 1017.40 1017.12 1016.71 1016.18 1015.54 1014.84 1014.12 1013.42 1012.79 1012.26 1011.86 1011.58 1011.42 1011.36 1011.36 1011.40 1011.44 1011.46 1011.44 1011.37 1011.25 1011.09 1010.91 1010.73 1010.56 1010.44 1010.37 1010.36
1018.05 1018.21 1018.36 1018.47 1018.54 1018.53 1018.46 1018.33 1018.17 1018.01 1017.87 1017.77 1017.70 1017.65 1017.57 1017.44 1017.21 1016.86 1016.37 1015.77 1015.06 1014.31 1013.54 1012.83 1012.20 1011.69 1011.32 1011.08 1010.97 1010.95 1010.99 1011.05 1011.11 1011.14 1011.11 1011.03 1010.90 1010.72 1010.53 1010.35 1010.19 1010.08 1010.04
1018.08 1018.25 1018.42 1018.55 1018.61 1018.60 1018.50 1018.33 1018.13 1017.92 1017.73 1017.59 1017.50 1017.44 1017.39 1017.30 1017.13 1016.85 1016.43 1015.88 1015.21 1014.46 1013.67 1012.89 1012.19 1011.59 1011.12 1010.80 1010.61 1010.54 1010.56 1010.62 1010.69 1010.74 1010.75 1010.69 1010.58 1010.42 1010.22 1010.03 1009.85 1009.72 1009.64
1018.11 1018.29 1018.47 1018.60 1018.65 1018.61 1018.48 1018.27 1018.01 1017.74 1017.50 1017.31 1017.18 1017.11 1017.06 1017.01 1016.90 1016.70 1016.36 1015.89 1015.28 1014.56 1013.78 1012.98 1012.22 1011.55 1011.00 1010.58 1010.31 1010.17 1010.12 1010.15 1010.20 1010.24 1010.25 1010.21 1010.11 1009.97 1009.79 1009.60 1009.43 1009.28 1009.19
1018.11 1018.30 1018.47 1018.58 1018.61 1018.54 1018.37 1018.12 1017.81 1017.48 1017.19 1016.95 1016.79 1016.70 1016.66 1016.64 1016.58 1016.45 1016.20 1015.82 1015.29 1014.64 1013.89 1013.10 1012.32 1011.59 1010.96 1010.46 1010.09 1009.85 1009.72 1009.67 1009.67 1009.67 1009.66 1009.62 1009.53 1009.41 1009.26 1009.09 1008.94 1008.82 1008.73
1018.08 1018.26 1018.40 1018.49 1018.48 1018.38 1018.18 1017.89 1017.55 1017.19 1016.86 1016.59 1016.40 1016.30 1016.26 1016.26 1016.25 1016.19 1016.02 1015.73 1015.29 1014.72 1014.03 1013.27 1012.49 1011.73 1011.05 1010.46 1009.99 1009.64 1009.41 1009.26 1009.16 1009.11 1009.05 1008.98 1008.90 1008.79 1008.68 1008.56 1008.45 1008.37 1008.31
1018.00 1018.15 1018.27 1018.32 1018.28 1018.16 1017.94 1017.64 1017.29 1016.92 1016.58 1016.30 1016.10 1015.99 1015.95 1015.96 1015.99 1015.97 1015.87 1015.66 1015.31 1014.82 1014.21 1013.51 1012.76 1012.00 1011.27 1010.62 1010.06 1009.61 1009.25 1008.98 1008.78 1008.63 1008.51 1008.40 1008.30 1008.20 1008.12 1008.04 1007.99 1007.96 1007.94
1017.88 1018.00 1018.08 1018.09 1018.03 1017.89 1017.68 1017.39 1017.06 1016.72 1016.40 1016.13 1015.94 1015.83 1015.79 1015.81 1015.84 1015.85 1015.80 1015.65 1015.37 1014.97 1014.43 1013.80 1013.10 1012.37 1011.64 1010.94 1010.31 1009.76 1009.29 1008.90 1008.58 1008.32 1008.11 1007.93 1007.80 1007.70 1007.63 1007.59 1007.59 1007.60 1007.63
1017.73 1017.81 1017.84 1017.83 1017.76 1017.63 1017.43 1017.19 1016.91 1016.62 1016.35 1016.12 1015.95 1015.84 1015.80 1015.81 1015.84 1015.85 1015.82 1015.70 1015.48 1015.14 1014.69 1014.13 1013.50 1012.81 1012.10 1011.40 1010.73 1010.11 1009.54 1009.03 1008.59 1008.22 1007.90 1007.65 1007.45 1007.32 1007.24 1007.22 1007.24 1007.29 1007.35
1017.52 1017.57 1017.59 1017.56 1017.49 1017.38 1017.23 1017.05 1016.84 1016.62 1016.42 1016.24 1016.11 1016.02 1015.97 1015.96 1015.96 1015.95 1015.90 1015.79 1015.60 1015.31 1014.93 1014.45 1013.89 1013.28 1012.62 1011.94 1011.26 1010.60 1009.96 1009.37 1008.82 1008.33 1007.91 1007.55 1007.28 1007.08 1006.97 1006.92 1006.94 1006.99 1007.06
1017.27 1017.30 1017.30 1017.27 1017.22 1017.15 1017.06 1016.95 1016.83 1016.70 1016.57 1016.46 1016.36 1016.29 1016.24 1016.20 1016.16 1016.11 1016.03 1015.90 1015.71 1015.45 1015.11 1014.71 1014.23 1013.70 1013.11 1012.48 1011.83 1011.17 1010.50 1009.84 1009.21 1008.63 1008.10 1007.64 1007.27 1006.99 1006.81 1006.71 1006.68 1006.69 1006.74
1016.96 1016.99 1016.99 1016.97 1016.95 1016.92 1016.89 1016.86 1016.82 1016.78 1016.74 1016.69 1016.64 1016.59 1016.53 1016.46 1016.38 1016.27 1016.14 1015.97 1015.77 1015.51 1015.21 1014.86 1014.46 1014.01 1013.51 1012.96 1012.36 1011.73 1011.07 1010.39 1009.71 1009.05 1008.44 1007.89 1007.42 1007.04 1006.76 1006.57 1006.46 1006.41 1006.40
1016.58 1016.62 1016.64 1016.64 1016.65 1016.67 1016.70 1016.73 1016.77 1016.82 1016.85 1016.87 1016.86 1016.84 1016.78 1016.68 1016.56 1016.40 1016.22 1016.00 1015.76 1015.50 1015.21 1014.90 1014.56 1014.18 1013.77 1013.30 1012.78 1012.21 1011.59 1010.92 1010.24 1009.54 1008.87 1008.25 1007.69 1007.21 1006.82 1006.53 1006.32 1006.18 1006.08
1016.13 1016.19 1016.23 1016.27 1016.30 1016.36 1016.43 1016.53 1016.63 1016.75 1016.85 1016.93 1016.97 1016.98 1016.93 1016.83 1016.68 1016.48 1016.24 1015.98 1015.70 1015.41 1015.12 1014.83 1014.53 1014.22 1013.87 1013.49 1013.06 1012.56 1012.01 1011.39 1010.73 1010.04 1009.35 1008.68 1008.06 1007.49 1007.01 1006.61 1006.29 1006.04 1005.83
1015.61 1015.70 1015.77 1015.83 1015.90 1015.98 1016.10 1016.23 1016.39 1016.55 1016.72 1016.85 1016.95 1017.00 1016.97 1016.89 1016.73 1016.51 1016.24 1015.94 1015.62 1015.30 1014.99 1014.70 1014.42 1014.14 1013.85 1013.54 1013.19 1012.78 1012.30 1011.76 1011.15 1010.50 1009.83 1009.15 1008.50 1007.88 1007.32 1006.83 1006.40 1006.03 1005.71
1015.01 1015.14 1015.25 1015.34 1015.44 1015.55 1015.69 1015.86 1016.05 1016.27 1016.47 1016.66 1016.82 1016.91 1016.93 1016.87 1016.73 1016.51 1016.22 1015.90 1015.55 1015.20 1014.87 1014.56 1014.27 1014.01 1013.76 1013.49 1013.21 1012.87 1012.48 1012.02 1011.49 1010.91 1010.28 1009.63 1008.98 1008.34 1007.74 1007.17 1006.66 1006.19 1005.76
Thickness
5774 5773 5771 5771 5772 5771 5769 5768 5767 5766 5764 5763 5762 5760 5759 5758 5758 5756 5752 5748 5747 5745 5743 5742 5740 5739 5738 5736 5735 5733 5731 5729 5728 5726 5724 5723 5722 5721 5720 5719 5718 5716 5715
5773 5773 5772 5771 5771 5769 5768 5767 5766 5765 5764 5762 5760 5758 5758 5757 5756 5754 5752 5748 5746 5744 5741 5740 5739 5738 5737 5735 5733 5732 5730 5728 5726 5725 5723 5722 5721 5720 5719 5717 5716 5715 5713
5773 5773 5773 5772 5771 5769 5767 5766 5766 5765 5763 5762 5760 5758 5757 5755 5754 5751 5750 5748 5747 5743 5740 5739 5738 5737 5735 5734 5732 5730 5728 5727 5726 5724 5722 5721 5720 5719 5717 5716 5714 5713 5712
5773 5773 5774 5773 5771 5771 5769 5767 5766 5764 5762 5761 5758 5758 5756 5754 5752 5750 5749 5746 5745 5744 5741 5738 5736 5735 5734 5732 5730 5728 5727 5725 5724 5723 5721 5720 5719 5717 5716 5714 5713 5711 5710
5773 5773 5773 5772 5772 5772 5770 5768 5766 5764 5761 5759 5758 5756 5755 5753 5751 5750 5748 5746 5743 5742 5741 5737 5736 5734 5732 5730 5728 5727 5725 5724 5722 5721 5720 5718 5717 5715 5713 5712 5711 5709 5708
5773 5773 5773 5771 5772 5771 5768 5766 5763 5761 5760 5759 5758 5756 5754 5752 5751 5749 5747 5746 5743 5742 5740 5739 5737 5734 5731 5729 5727 5726 5724 5722 5721 5719 5718 5717 5715 5713 5712 5710 5708 5707 5706
5773 5772 5773 5771 5770 5769 5766 5765 5763 5760 5759 5758 5755 5751 5751 5751 5749 5747 5746 5745 5743 5741 5739 5737 5736 5734 5732 5728 5726 5724 5722 5721 5720 5718 5717 5715 5714 5712 5710 5708 5707 5705 5703
5774 5774 5771 5771 5770 5768 5765 5763 5761 5760 5759 5758 5754 5748 5744 5744 5745 5747 5745 5743 5742 5741 5739 5737 5734 5732 5731 5729 5726 5723 5721 5719 5718 5717 5715 5714 5712 5711 5709 5707 5705 5703 5701
5774 5772 5771 5771 5769 5769 5766 5763 5762 5759 5756 5756 5756 5751 5745 5741 5740 5741 5741 5741 5739 5738 5737 5736 5733 5731 5729 5727 5725 5721 5719 5718 5717 5716 5714 5711 5710 5709 5707 5705 5703 5701 5699
5774 5773 5771 5770 5769 5769 5765 5765 5763 5760 5757 5755 5754 5752 5750 5747 5740 5735 5737 5738 5737 5735 5735 5735 5733 5730 5728 5725 5722 5719 5717 5716 5714 5713 5711 5709 5707 5705 5704 5702 5700 5699 5696
5773 5772 5771 5769 5767 5767 5765 5763 5761 5760 5759 5756 5753 5751 5748 5745 5744 5738 5731 5731 5733 5734 5733 5731 5730 5729 5726 5724 5721 5718 5715 5713 5711 5709 5707 5705 5704 5702 5700 5699 5697 5695 5693
5774 5772 5771 5769 5767 5766 5764 5762 5760 5759 5757 5755 5754 5752 5749 5745 5742 5738 5734 5730 5729 5730 5730 5728 5727 5726 5724 5722 5719 5715 5712 5710 5708 5706 5704 5702 5700 5699 5697 5695 5693 5691 5689
5773 5770 5771 5768 5767 5766 5764 5762 5759 5758 5757 5754 5752 5751 5749 5747 5745 5741 5736 5732 5729 5728 5727 5727 5725 5724 5722 5720 5716 5712 5710 5707 5705 5703 5701 5699 5697 5695 5693 5690 5688 5686 5684
5774 5771 5769 5768 5766 5765 5764 5762 5761 5759 5756 5753 5751 5749 5747 5746 5745 5742 5738 5733 5727 5726 5725 5724 5724 5722 5720 5717 5714 5710 5708 5705 5702 5700 5698 5696 5693 5691 5688 5686 5684 5681 5679
5773 5771 5769 5767 5766 5764 5763 5761 5760 5757 5755 5753 5751 5748 5746 5746 5744 5743 5740 5737 5730 5724 5722 5721 5721 5720 5717 5714 5710 5708 5706 5702 5700 5697 5695 5692 5689 5687 5684 5681 5679 5676 5674
5771 5769 5768 5766 5765 5763 5762 5760 5759 5757 5753 5751 5749 5746 5745 5745 5743 5741 5740 5737 5735 5729 5724 5723 5719 5718 5715 5713 5708 5706 5703 5700 5697 5695 5692 5689 5686 5683 5680 5677 5674 5672 5670
5769 5768 5766 5765 5763 5762 5761 5759 5758 5755 5752 5750 5748 5746 5744 5742 5741 5740 5738 5736 5733 5730 5722 5721 5719 5716 5711 5708 5705 5703 5702 5699 5697 5692 5689 5685 5682 5679 5676 5673 5670 5668 5666
5769 5767 5765 5763 5762 5761 5759 5757 5755 5753 5751 5748 5746 5744 5742 5741 5738 5737 5735 5733 5731 5728 5722 5716 5715 5711 5708 5705 5702 5700 5700 5698 5695 5690 5686 5682 5679 5675 5672 5669 5666 5664 5662
5767 5766 5763 5761 5759 5758 5756 5755 5753 5751 5749 5747 5745 5743 5741 5738 5735 5734 5732 5731 5729 5727 5722 5716 5713 5710 5706 5704 5700 5698 5696 5693 5692 5688 5683 5679 5676 5672 5669 5666 5663 5660 5658
5765 5763 5761 5759 5757 5755 5754 5752 5750 5748 5746 5744 5743 5741 5739 5737 5733 5731 5729 5727 5725 5723 5719 5715 5711 5707 5704 5700 5697 5695 5692 5691 5689 5687 5682 5678 5674 5670 5667 5663 5660 5657 5654
5764 5761 5759 5757 5755 5754 5752 5749 5747 5746 5743 5741 5740 5738 5737 5734 5731 5728 5728 5725 5722 5719 5717 5713 5709 5706 5701 5697 5695 5694 5691 5688 5686 5684 5680 5678 5674 5671 5666 5661 5657 5653 5650
5759 5757 5755 5754 5752 5752 5747 5743 5741 5742 5740 5737 5735 5734 5733 5730 5726 5723 5720 5718 5716 5715 5713 5710 5707 5703 5699 5697 5694 5691 5688 5684 5681 5681 5677 5676 5673 5670 5666 5662 5656 5651 5648
5754 5752 5751 5750 5748 5746 5741 5738 5735 5736 5736 5734 5732 5730 5731 5730 5724 5721 5716 5712 5710 5708 5706 5706 5704 5701 5698 5695 5691 5687 5684 5681 5679 5679 5674 5672 5670 5667 5665 5661 5654 5649 5645
5750 5748 5746 5746 5744 5741 5736 5733 5730 5731 5732 5730 5728 5726 5724 5723 5721 5716 5714 5711 5709 5707 5703 5701 5701 5699 5696 5692 5688 5684 5681 5677 5676 5674 5671 5668 5668 5665 5663 5658 5652 5647 5643
5746 5744 5743 5741 5738 5736 5731 5727 5724 5726 5726 5724 5723 5722 5720 5717 5713 5708 5708 5706 5704 5702 5699 5696 5694 5692 5689 5686 5683 5681 5677 5674 5672 5671 5669 5666 5666 5662 5660 5657 5651 5645 5641
5741 5740 5738 5736 5733 5731 5726 5722 5718 5722 5721 5719 5718 5716 5712 5710 5706 5702 5701 5700 5697 5697 5695 5692 5688 5686 5684 5682 5678 5676 5675 5672 5670 5669 5668 5663 5661 5657 5654 5654 5650 5643 5638